Regional Weather Roundup
Issued by NWS

Home | Current Version | Previous Version | Graphics & Text | Print | Product List | Glossary Off
Versions: 1 2 3 4 5 6 7 8 9 10 11 12 13 14 15 16 17 18 19 20 21 22 23 24 25 26 27 28 29 30 31 32 33 34 35 36 37 38 39 40 41 42 43 44 45 46 47 48 49 50

000
ASUS43 KMKX 041721
RWRWI

WISCONSIN REGIONAL WEATHER ROUNDUP
NATIONAL WEATHER SERVICE MILWAUKEE/SULLIVAN WI
1200 PM CDT MON MAY 04 2015

NOTE: "FAIR" INDICATES FEW OR NO CLOUDS BELOW 12,000 FEET WITH NO
SIGNIFICANT WEATHER AND/OR OBSTRUCTIONS TO VISIBILITY.

WIZ001-002-006>008-014>016-023>028-041800-
NORTHWEST WISCONSIN

CITY           SKY/WX    TMP DP  RH WIND       PRES   REMARKS
SUPERIOR ARPT  MOSUNNY   62  31  31 NW9G17    30.20R
ASHLAND        MOSUNNY   64  35  34 NE8       30.19R
HAYWARD        SUNNY     62  28  27 N10       30.20R
SIREN          MOSUNNY   65  29  26 N13       30.20R
CUMBERLAND     MOSUNNY   61  30  31 N13       30.19S
RICE LAKE      MOSUNNY   64  24  21 NW14G20   30.20R
CHETEK         MOSUNNY   64  34  32 N5        30.18S
LADYSMITH      MOSUNNY   63  32  31 N9G16     30.19R
EAU CLAIRE     SUNNY     66  32  28 N8        30.17R
MENOMONIE      SUNNY     64  33  30 NW12      30.18S
NEW RICHMOND   MOSUNNY   65  26  22 N12G22    30.19S
OSCEOLA        MOSUNNY   65  34  31 N14       30.22R
$$

WIZ003>005-009-010-017-018-041800-
NORTH CENTRAL WISCONSIN

CITY           SKY/WX    TMP DP  RH WIND       PRES   REMARKS
MANITOWISH WTR SUNNY     58  33  38 N9G16     30.16R
ARBOR VITAE    SUNNY     62  32  32 N9G16     30.16R
WOODRUFF       SUNNY     62  32  32 N9G16     30.16R
RHINELANDER    SUNNY     61  31  32 N9        30.17R
EAGLE RIVER    SUNNY     61  30  31 N9G16     30.15R
LAND O LAKES   SUNNY     59  32  35 N10       30.16R
PHILLIPS       MOSUNNY   60  35  39 NE6       30.16R
TOMAHAWK       SUNNY     62  31  32 NW12      30.16S
MEDFORD        SUNNY     61  35  37 NW8       30.16R
MERRILL        SUNNY     63  37  38 N10       30.15R
$$

WIZ029-030-035-036-043>047-041800-
CENTRAL WISCONSIN

CITY           SKY/WX    TMP DP  RH WIND       PRES   REMARKS
WAUSAU         SUNNY     65  37  35 NW9       30.13R
MOSINEE        SUNNY     64  37  36 NW6       30.15R
MARSHFIELD     SUNNY     66  39  37 NW14      30.15R
STEVENS POINT  SUNNY     65  36  34 CALM      30.14R
WAUPACA        SUNNY     70  39  32 N6        30.13R
WAUTOMA        SUNNY     70  39  32 VRB3      30.13R
WISC RAPIDS    SUNNY     68  32  26 VRB7G17   30.15R
CAMP DOUGLAS   MOSUNNY   70  41  35 N8        30.13R
$$

WIZ011>013-019>022-031-037>040-048>050-041800-
NORTHEAST WISCONSIN

CITY           SKY/WX    TMP DP  RH WIND       PRES   REMARKS
ANTIGO         SUNNY     61  41  46 N9        30.14S
SHAWANO        SUNNY     71  37  29 W5        30.11R
OCONTO         SUNNY     68  38  33 N7        30.10R
STURGEON BAY   SUNNY     64  39  39 N9        30.13S
GREEN BAY      SUNNY     70  42  36 E12       30.10R
MANITOWOC      MOSUNNY   68  42  38 N7        30.10R
APPLETON       SUNNY     66  39  37 N12       30.11R
CLINTONVILLE   SUNNY     68  37  32 N7        30.11R
OSHKOSH        SUNNY     68  44  42 E9        30.11R
$$

WIZ032>034-041-042-053>061-041800-
SOUTHWEST WISCONSIN

CITY           SKY/WX    TMP DP  RH WIND       PRES   REMARKS
LA CROSSE      MOSUNNY   70  36  28 N10       30.14R
SPARTA         SUNNY     68  34  28 N8        30.15S
VIROQUA        MOSUNNY   65  44  46 N12       30.15R
BOSCOBEL       PTSUNNY   73  52  47 VRB5      30.12R
PRAIRIE DU CHI PTSUNNY   67  53  59 CALM      30.13R
PLATTEVILLE    PTSUNNY   68  59  74 N8        30.12S
$$

WIZ056-057-062-063-064-067-068-041800-
SOUTH CENTRAL WISCONSIN

CITY           SKY/WX    TMP DP  RH WIND       PRES   REMARKS
REEDSBURG      MOSUNNY   67  53  62 N7        30.12S
BARABOO/DELLS  NOT AVBL
LONE ROCK      MOSUNNY   71  50  47 VRB7      30.12R
MINERAL POINT  CLOUDY    68  55  64 N6        30.13R
MADISON        PTSUNNY   69  55  60 N9        30.11R
MIDDLETON      MOSUNNY   70  54  58 N7        30.12R
WATERTOWN      CLOUDY    65  58  79 N5        30.11R
MONROE         PTSUNNY   68  57  68 N7        30.12R
JANESVILLE     CLOUDY    68  57  68 NW5       30.11R
$$

WIZ051-052-058>065-066-070>072-041800-
SOUTHEAST WISCONSIN

CITY           SKY/WX    TMP DP  RH WIND       PRES   REMARKS
MILWAUKEE      CLOUDY    67  57  70 E8        30.10R
WAUKESHA       PTSUNNY   66  55  68 NE7       30.12R
MILWAUKEE/TIMM CLOUDY    68  54  60 NW3       30.11R
RACINE         CLOUDY    66  56  70 E9        30.12R
BURLINGTON     CLOUDY    66  56  71 W3        30.11R
KENOSHA        CLOUDY    70  59  68 W8        30.10R
FOND DU LAC    MOSUNNY   68  48  48 N13       30.11R
SHEBOYGAN      MOSUNNY   67  44  43 NE14      30.12R
WEST BEND      CLOUDY    66  54  63 NE6       30.10S
JUNEAU         CLOUDY    65  56  72 NE5       30.13R
$$

LSZ147-162-041800-
LAKE SUPERIOR

STATION/POSITION TIME  TEMP    WIND        PRES    WAVE
                       AIR SEA DIR/SP/G            HT/PER
                 (UTC) (F)     (DEG/KT/KT) (MB)    (FT/S)
W MID LAKE BUOY  1650   38 36  210/  8/  8 1022.7R   1
DEVILS ISLAND    1700   49     230/  8/ 11 1022.9R
PORT WING        1640   55     280/  6/  7 1022.7R
SAXON HARBOR     1600   55        CALM     1022.0R
$$

LMZ867-665-643>646-041800-
LAKE MICHIGAN

STATION/POSITION TIME  TEMP    WIND        PRES    WAVE
                       AIR SEA DIR/SP/G            HT/PER
                 (UTC) (F)     (DEG/KT/KT) (MB)    (FT/S)
CHAMBERS ISLAND  1600   56      30/  7/  8 1019.0R
NORTHPORT PIER   1600   51     320/  8/ 11 1019.0R
SISTER BAY       1602   61      10/ 15/ 18   N/A
KEWAUNEE LAKESHO 1600   59      30/  7/  9 1017.8
SHEBOYGAN LAKESH 1700   56      20/  7/  7 1020.6R
PORT WASHINGTON  1600   66      50/  3/  7 1019.3R
ATWATER BUOY     1700   53      10/  4/  4 1020.8R
MILWAUKEE LAKESH 1700   51     130/  4/  4   N/A
KENOSHA   LAKESH 1700   66     120/  3/  5 1019.3R
$$

TC  - TEMPERATURE IN CELSIUS
VSB - VISIBILITY IN STATUTE MILES
WCI - WIND CHILL INDEX
HX  - HEAT INDEX



USA.gov is the U.S. government's official web portal to all federal, state and local government web resources and services.